Temp
47 48 48 48 48 48 48 49 49 50 50 49 49 48 50 51 51 45 43 47 41 35 39 37 38 35 34 34 31 31 32 31 31 30 32 30 32 32 31 35 31 30 28 29 30 28 27 40 36 37 40 38 38 42
47 47 47 47 48 48 48 48 48 49 50 49 49 49 49 50 51 47 39 44 43 37 37 40 40 38 38 38 34 32 32 32 35 32 32 31 28 29 31 28 32 29 36 33 34 33 33 38 36 39 40 38 38 40
46 46 46 47 47 47 47 47 48 48 49 49 48 49 49 49 50 47 42 41 40 35 36 36 36 39 40 39 42 34 33 35 35 36 34 32 29 32 27 29 31 32 35 33 31 28 31 34 35 37 39 40 40 40
44 45 45 46 46 46 46 47 47 48 48 48 48 48 49 49 48 47 40 42 42 38 32 34 40 38 41 41 39 39 37 35 35 34 32 31 30 31 30 31 32 33 33 30 26 30 31 30 33 38 39 38 37 37
43 44 45 45 45 45 45 46 46 47 48 48 48 48 49 49 48 46 46 44 47 40 33 33 33 38 39 41 40 39 36 34 34 31 31 30 29 30 30 31 30 33 32 30 29 34 34 34 39 41 37 37 36 36
43 44 43 44 45 45 45 45 46 46 47 48 48 49 49 49 48 40 32 41 45 47 33 29 35 31 37 40 39 38 35 34 33 32 29 29 33 32 29 28 34 37 38 41 36 40 40 40 42 41 38 37 36 35
43 43 43 43 44 44 45 45 45 46 46 47 48 49 49 49 44 34 34 40 47 46 33 27 27 31 35 36 35 35 36 34 33 30 29 31 31 34 29 26 35 36 37 37 37 36 36 37 38 37 36 36 33 30
43 43 43 44 44 44 45 46 46 45 45 46 47 48 49 49 46 38 42 44 46 35 33 28 23 27 32 31 30 35 33 34 33 31 31 30 31 31 25 32 35 36 36 35 36 36 37 37 34 32 30 29 26 28
42 43 44 44 44 45 45 45 46 44 45 46 47 48 44 39 33 36 46 46 42 37 30 28 23 22 31 31 32 32 35 28 32 29 30 31 26 24 29 32 33 34 33 34 33 29 28 29 30 28 27 25 26 28
42 43 43 43 43 43 43 44 44 44 43 46 42 33 30 33 41 44 37 33 31 32 32 29 31 24 31 31 28 29 31 27 22 28 30 27 26 25 21 20 20 20 20 25 26 26 24 24 26 26 27 28 28 27
42 39 39 41 42 40 41 43 43 43 41 37 32 31 35 42 34 32 28 28 29 26 30 26 29 24 31 27 26 31 27 27 21 25 25 23 23 18 14 14 14 14 15 16 16 20 23 25 27 27 24 24 22 20
37 41 40 39 39 43 44 43 43 40 34 35 35 35 32 32 29 26 25 26 26 23 22 25 27 30 28 34 29 27 25 25 20 26 24 20 20 8 6 6 6 6 5 7 10 11 13 14 12 15 16 15 12 11
40 40 39 39 40 43 44 44 44 44 40 34 32 29 28 27 20 20 17 19 19 23 23 25 24 26 27 31 28 27 21 20 25 21 21 22 10 6 1 1 0 2 2 4 5 6 7 5 4 3 6 5 6 3
39 39 39 38 38 42 44 44 45 41 33 30 25 20 22 20 22 24 25 25 25 27 25 28 25 27 27 26 26 21 21 22 18 16 18 11 2 -2 -1 -2 -5 -5 -4 -2 -1 1 1 0 -2 -2 -2 1 1 0
38 37 38 38 37 38 43 44 43 34 30 25 25 18 20 13 12 11 12 20 20 30 30 25 26 28 24 22 23 19 15 15 19 18 11 4 -1 -3 -4 -5 -7 -7 -7 -5 -3 -3 -3 -3 -4 -5 -5 -3 -2 -3
35 33 33 37 36 35 39 36 30 28 18 17 12 15 13 17 13 16 19 18 21 28 29 29 23 22 20 22 18 17 17 15 12 4 2 2 -4 -6 -7 -7 -8 -8 -7 -6 -6 -5 -5 -7 -7 -6 -6 -5 -4 -3
31 25 34 35 34 32 30 26 21 13 11 12 6 7 7 12 11 10 15 16 21 26 21 23 19 17 23 17 10 3 4 1 2 -0 -1 -4 -6 -8 -9 -8 -10 -9 -8 -7 -7 -7 -7 -6 -4 -3 -5 -6 -4 -5
25 29 33 33 31 27 17 17 15 11 5 6 7 3 6 5 8 7 9 11 20 21 22 16 20 9 4 8 1 -3 -3 -0 -0 -1 -2 -3 -5 -6 -6 -6 -8 -8 -7 -8 -7 -7 -6 -4 -3 -5 -5 -4 -5 -4
29 29 31 30 27 20 15 10 12 4 3 6 8 8 7 4 3 3 3 7 5 5 6 2 -7 -8 -10 -8 -7 -6 -6 -5 -5 -2 -3 -4 -6 -7 -6 -6 -6 -6 -8 -6 -4 -4 -4 -6 -3 -1 -0 1 -1 -0
29 29 28 26 25 18 10 6 13 8 3 3 7 5 4 2 3 0 -3 -1 -1 -5 -13 -14 -16 -14 -12 -10 -8 -8 -6 -5 -5 -3 -3 -3 -3 -4 -6 -5 -5 -4 -3 -3 -2 -2 -1 -2 -2 -1 -1 -1 -0 -2
22 21 21 18 10 8 5 5 4 5 6 3 4 6 2 2 -4 -5 -7 -4 -10 -14 -15 -13 -13 -11 -9 -8 -7 -7 -6 -7 -7 -7 -7 -5 -3 -3 -3 -3 -2 -2 -2 -2 -2 -3 -3 -4 -4 -3 -2 -3 -3 -3
14 20 11 13 9 7 5 6 4 4 4 2 3 2 -3 -5 -7 -9 -5 -12 -15 -14 -13 -13 -13 -12 -10 -10 -10 -9 -9 -7 -7 -5 -4 -5 -5 -5 -6 -5 -3 -5 -6 -5 -4 -5 -5 -5 -4 -4 -3 -4 -4 -4
12 12 6 2 2 1 -1 7 2 2 1 -0 1 -4 -6 -7 -6 -3 -14 -13 -13 -10 -10 -11 -11 -10 -10 -7 -7 -8 -8 -6 -8 -7 -7 -6 -6 -5 -5 -7 -6 -6 -6 -6 -5 -5 -5 -5 -4 -5 -4 -4 -4 -4
4 -7 -9 -10 -8 -9 0 -4 -0 -1 -1 -4 -6 -10 -11 -8 -5 -12 -18 -16 -13 -10 -11 -12 -10 -8 -7 -7 -9 -10 -10 -6 -6 -8 -8 -5 -7 -9 -7 -8 -8 -8 -8 -6 -5 -5 -5 -6 -6 -5 -5 -6 -6 -6
-11 -21 -15 -20 -12 -12 -11 -11 -13 -8 -12 -9 -10 -11 -11 -7 -15 -18 -19 -17 -14 -14 -13 -11 -10 -10 -12 -11 -10 -9 -8 -9 -9 -11 -10 -6 -6 -6 -7 -8 -9 -9 -9 -10 -11 -11 -10 -10 -9 -9 -9 -8 -9 -10
-27 -20 -20 -22 -19 -18 -17 -18 -19 -18 -14 -16 -15 -10 -10 -15 -20 -24 -20 -17 -15 -14 -13 -13 -13 -12 -12 -10 -12 -11 -10 -8 -7 -11 -11 -9 -9 -10 -11 -12 -11 -10 -6 -8 -11 -13 -12 -11 -11 -13 -11 -11 -11 -12
-26 -25 -17 -13 -18 -17 -19 -18 -18 -21 -25 -24 -22 -17 -17 -25 -26 -21 -14 -11 -12 -11 -9 -10 -10 -12 -13 -12 -10 -9 -7 -8 -9 -9 -8 -9 -10 -10 -12 -15 -16 -12 -8 -9 -10 -11 -11 -12 -12 -11 -12 -11 -11 -10
-21 -22 -26 -20 -22 -21 -25 -25 -27 -29 -26 -24 -20 -26 -27 -26 -24 -16 -13 -9 -9 -8 -10 -11 -11 -11 -13 -13 -13 -12 -12 -11 -8 -9 -9 -8 -10 -11 -13 -13 -12 -6 -11 -11 -11 -11 -11 -11 -11 -10 -12 -15 -15 -13
-21 -21 -19 -25 -23 -23 -27 -26 -25 -23 -22 -25 -23 -24 -23 -18 -15 -14 -11 -10 -9 -11 -15 -16 -16 -15 -16 -15 -16 -17 -16 -16 -19 -24 -25 -21 -19 -16 -15 -16 -15 -14 -14 -14 -10 -9 -9 -9 -9 -11 -14 -17 -16 -16
-23 -22 -23 -24 -26 -26 -22 -23 -21 -20 -20 -20 -16 -16 -17 -16 -14 -10 -12 -13 -15 -18 -19 -21 -23 -22 -25 -24 -23 -22 -21 -22 -22 -22 -25 -24 -22 -18 -19 -19 -18 -17 -16 -17 -17 -16 -13 -14 -15 -19 -19 -19 -20 -20
-22 -19 -22 -22 -22 -20 -20 -19 -15 -15 -14 -17 -16 -19 -21 -18 -14 -13 -14 -18 -21 -24 -23 -23 -24 -26 -26 -26 -28 -28 -25 -23 -28 -27 -27 -24 -23 -22 -21 -19 -17 -16 -16 -21 -21 -20 -20 -21 -22 -23 -23 -24 -25 -24
-22 -28 -25 -24 -21 -18 -19 -20 -20 -18 -19 -20 -20 -21 -22 -22 -26 -21 -15 -21 -24 -25 -24 -28 -30 -23 -24 -25 -26 -26 -24 -24 -24 -21 -24 -21 -20 -20 -18 -16 -15 -15 -20 -19 -20 -21 -22 -24 -24 -25 -25 -26 -26 -26
-26 -24 -26 -26 -26 -26 -26 -26 -24 -25 -24 -27 -25 -26 -27 -24 -26 -20 -15 -20 -21 -23 -24 -23 -22 -23 -25 -26 -24 -23 -22 -23 -26 -15 -15 -14 -13 -11 -11 -11 -15 -22 -23 -22 -22 -22 -24 -25 -26 -26 -27 -27 -27 -27
MSLP
1004.88 1004.73 1004.74 1004.68 1004.67 1004.46 1004.55 1004.41 1004.34 1004.26 1004.25 1004.54 1004.97 1005.01 1004.80 1004.73 1004.99 1005.66 1005.90 1006.26 1006.46 1006.41 1005.87 1005.92 1005.86 1005.86 1005.92 1005.69 1006.04 1007.34 1008.13 1007.79 1007.70 1007.22 1006.86 1006.80 1006.90 1007.09 1007.33 1007.21 1007.54 1007.78 1008.47 1008.34 1008.49 1008.08 1007.51 1006.93 1007.78 1007.46 1007.08 1007.34 1007.54 1008.09
1004.02 1003.89 1003.88 1003.78 1003.67 1003.65 1003.47 1003.62 1003.63 1003.53 1003.38 1003.68 1003.82 1004.17 1004.22 1004.09 1004.26 1004.85 1005.81 1006.06 1006.26 1006.37 1006.27 1006.10 1005.97 1006.10 1006.38 1006.20 1006.24 1006.88 1006.55 1006.34 1006.14 1006.32 1006.35 1006.60 1006.95 1007.25 1006.73 1007.01 1007.42 1007.41 1006.82 1007.16 1007.74 1007.96 1008.00 1007.99 1007.93 1007.68 1007.54 1007.65 1008.29 1008.77
1003.25 1003.17 1003.04 1002.92 1002.86 1002.71 1002.67 1002.59 1002.55 1002.60 1002.69 1002.73 1003.05 1003.32 1003.34 1003.54 1003.50 1003.99 1004.78 1005.66 1006.19 1006.34 1006.29 1006.23 1006.00 1006.18 1006.39 1006.51 1006.21 1006.29 1006.56 1006.50 1006.38 1006.26 1006.17 1006.53 1006.63 1006.74 1006.58 1006.39 1006.73 1006.96 1007.04 1007.00 1008.07 1008.80 1008.97 1008.94 1008.94 1008.40 1008.38 1008.53 1008.70 1009.01
1002.52 1002.35 1002.21 1002.05 1001.94 1001.87 1001.79 1001.70 1001.68 1001.73 1001.87 1002.05 1002.30 1002.42 1002.72 1002.86 1002.93 1003.01 1003.80 1004.67 1005.36 1005.48 1005.52 1005.62 1005.92 1006.12 1006.22 1006.30 1006.26 1006.09 1006.21 1006.68 1006.91 1006.91 1006.53 1006.48 1006.74 1006.97 1006.59 1006.61 1006.63 1007.05 1007.18 1007.57 1008.49 1009.06 1009.63 1010.11 1009.90 1009.15 1008.79 1009.18 1009.47 1009.78
1001.82 1001.64 1001.38 1001.18 1001.04 1001.00 1000.93 1000.89 1000.81 1000.82 1000.96 1001.18 1001.37 1001.63 1001.87 1002.15 1002.43 1002.25 1002.66 1003.33 1003.85 1004.04 1004.50 1005.66 1006.16 1006.30 1006.27 1006.18 1006.37 1006.32 1006.42 1006.62 1006.96 1007.30 1007.13 1007.18 1007.28 1007.27 1007.32 1006.99 1006.54 1006.73 1006.98 1007.00 1007.06 1007.78 1008.22 1008.84 1008.67 1008.66 1009.27 1009.49 1009.90 1010.25
1001.04 1000.80 1000.67 1000.48 1000.25 1000.19 1000.15 1000.13 1000.00 999.96 1000.07 1000.28 1000.50 1000.74 1001.05 1001.43 1001.83 1001.88 1002.35 1002.84 1002.78 1003.23 1004.41 1005.55 1006.28 1006.46 1006.31 1006.26 1006.26 1006.37 1006.68 1007.05 1007.21 1007.04 1007.46 1007.74 1007.62 1007.38 1007.35 1006.90 1006.19 1006.36 1006.57 1006.34 1006.97 1007.40 1007.48 1007.65 1007.80 1008.21 1009.20 1009.82 1010.25 1010.79
1000.33 1000.18 999.98 999.91 999.77 999.60 999.44 999.41 999.35 999.20 999.28 999.50 999.69 999.99 1000.30 1000.62 1001.06 1001.01 1001.18 1001.27 1002.25 1002.77 1003.87 1005.38 1006.11 1006.74 1006.61 1006.59 1006.87 1007.01 1007.04 1007.26 1007.26 1007.51 1007.51 1007.55 1007.82 1007.65 1007.65 1007.09 1006.53 1006.83 1006.99 1007.10 1007.02 1007.35 1007.82 1007.99 1008.19 1008.70 1009.37 1009.89 1010.44 1011.25
999.50 999.44 999.22 999.01 998.83 998.77 998.61 998.50 998.45 998.60 998.47 998.60 998.98 999.22 999.48 999.94 1000.46 1000.69 1000.25 1000.85 1001.30 1002.73 1003.54 1004.08 1005.69 1006.66 1006.69 1006.31 1006.66 1006.94 1006.87 1006.96 1007.19 1007.45 1007.76 1007.74 1008.32 1008.48 1008.35 1007.83 1007.35 1007.33 1007.67 1007.96 1007.97 1007.94 1008.03 1008.26 1008.68 1009.40 1010.13 1010.79 1011.33 1011.75
998.73 998.52 998.25 998.04 997.96 997.82 997.74 997.62 997.56 997.76 997.52 997.60 998.25 998.75 999.31 999.63 999.70 999.43 1000.03 1000.50 1001.23 1001.84 1001.89 1002.92 1003.99 1005.22 1006.08 1006.01 1006.39 1006.80 1006.61 1006.88 1007.53 1007.34 1007.48 1007.99 1008.59 1008.95 1008.92 1008.86 1009.01 1009.20 1009.45 1009.25 1008.93 1009.21 1009.44 1009.76 1010.27 1010.46 1010.86 1011.23 1011.81 1011.96
997.96 997.60 997.25 997.16 997.05 996.91 996.84 996.84 997.01 997.03 997.22 997.19 998.22 998.85 998.07 998.47 998.40 999.42 999.53 1000.20 1001.05 1000.66 1001.15 1001.67 1002.48 1004.14 1004.78 1005.20 1005.83 1006.36 1006.45 1006.73 1007.22 1007.51 1007.83 1008.39 1008.77 1010.21 1011.34 1011.73 1011.87 1011.98 1012.04 1011.41 1011.27 1011.26 1011.15 1011.23 1011.41 1011.53 1011.68 1011.77 1012.09 1012.47
996.96 997.17 996.88 996.21 995.68 995.63 995.39 995.46 995.97 996.54 996.91 996.79 997.22 997.23 997.32 997.45 998.10 997.53 997.55 998.52 999.36 999.74 1000.39 1001.59 1001.95 1002.92 1004.40 1004.25 1004.99 1005.62 1005.84 1006.44 1006.81 1007.34 1008.07 1009.14 1009.97 1012.02 1013.59 1014.23 1014.58 1014.58 1014.51 1014.32 1014.16 1013.63 1013.14 1012.94 1012.71 1012.62 1012.67 1012.82 1012.93 1013.33
996.85 996.14 995.68 995.04 993.97 991.75 991.47 992.47 993.94 995.44 995.60 996.04 996.58 996.81 997.20 996.26 996.76 996.92 997.26 997.95 998.22 999.19 1000.93 1001.02 1001.44 1002.64 1004.15 1004.18 1004.55 1005.79 1005.65 1006.37 1006.80 1007.79 1008.89 1010.26 1011.83 1014.71 1015.95 1016.74 1017.07 1017.12 1016.88 1016.35 1015.89 1015.31 1014.89 1014.70 1014.69 1014.44 1014.46 1014.52 1014.85 1015.14
995.86 995.57 995.17 994.38 992.31 989.99 989.45 990.72 992.48 994.01 995.54 996.41 996.24 996.61 996.02 996.19 996.37 996.78 997.34 998.30 998.69 999.04 1000.29 1000.55 1001.70 1002.73 1004.00 1004.10 1004.46 1005.05 1005.69 1006.59 1007.38 1008.62 1009.73 1011.37 1014.42 1016.62 1018.20 1018.92 1019.03 1019.06 1018.77 1018.29 1017.82 1017.22 1016.82 1016.74 1016.49 1016.46 1016.49 1016.79 1016.77 1016.92
995.61 995.52 994.93 994.12 992.74 991.21 991.02 991.60 992.36 993.87 995.47 995.70 995.86 996.14 996.29 996.69 997.47 997.38 997.78 998.31 998.58 998.58 999.25 999.63 1000.98 1001.99 1003.23 1003.73 1004.38 1005.22 1006.67 1007.41 1008.41 1009.75 1011.29 1013.91 1016.62 1018.63 1019.81 1020.40 1020.44 1020.36 1019.95 1019.59 1019.27 1018.93 1018.71 1018.45 1018.26 1018.50 1018.54 1018.54 1018.64 1018.85
995.43 995.54 994.93 993.98 992.94 992.05 991.51 991.88 992.72 994.39 995.06 995.70 996.55 997.62 998.01 998.71 998.76 999.25 999.58 999.19 999.67 999.03 998.95 1000.54 1001.61 1002.19 1003.18 1004.15 1005.09 1006.73 1008.22 1008.99 1009.94 1011.31 1013.89 1016.67 1018.73 1020.09 1021.03 1021.41 1021.53 1021.48 1021.13 1020.81 1020.61 1020.57 1020.60 1020.30 1020.07 1020.20 1020.28 1020.25 1020.18 1020.32
995.65 995.64 995.21 994.20 993.50 992.85 991.60 992.22 993.76 995.28 996.70 997.97 999.03 999.88 1000.12 1000.06 1000.57 1000.64 1000.56 1000.57 1000.39 1000.01 1000.19 1001.00 1002.35 1003.21 1004.06 1004.98 1006.62 1007.94 1009.65 1011.24 1013.11 1015.17 1017.31 1018.93 1020.31 1021.45 1022.22 1022.30 1022.47 1022.45 1022.15 1021.91 1021.81 1021.61 1021.66 1021.78 1021.61 1021.65 1021.77 1021.79 1021.77 1021.73
996.27 996.65 995.87 994.77 994.14 993.75 993.64 993.82 995.82 998.16 999.64 1000.45 1001.98 1002.55 1002.60 1002.25 1002.61 1003.07 1002.66 1002.65 1002.20 1001.59 1001.94 1002.75 1003.81 1004.96 1006.01 1007.70 1009.88 1012.14 1014.11 1015.77 1017.03 1018.50 1019.87 1021.05 1021.94 1022.81 1022.91 1022.99 1023.25 1023.20 1023.02 1022.76 1022.62 1022.65 1022.73 1022.75 1022.37 1022.27 1022.45 1022.88 1022.83 1022.98
997.32 997.14 995.94 995.22 994.69 994.76 996.08 996.91 998.30 1000.29 1002.38 1003.61 1003.92 1004.66 1005.00 1005.13 1005.06 1005.48 1005.42 1005.10 1003.37 1003.76 1004.39 1006.07 1006.87 1008.99 1011.43 1012.96 1015.17 1017.19 1018.38 1019.15 1020.03 1020.84 1021.82 1022.57 1023.08 1023.39 1023.58 1023.69 1023.82 1023.69 1023.51 1023.50 1023.52 1023.43 1023.31 1023.18 1022.96 1023.17 1023.34 1023.57 1023.38 1023.33
997.68 997.25 996.58 995.92 995.35 996.02 997.95 1000.10 1000.66 1002.87 1005.02 1005.30 1005.58 1005.92 1006.50 1007.47 1008.55 1008.70 1008.23 1007.55 1007.36 1007.86 1008.63 1011.42 1013.56 1016.12 1018.18 1019.71 1020.41 1021.02 1021.49 1021.96 1022.24 1022.52 1022.91 1023.39 1023.70 1023.87 1023.95 1023.96 1023.79 1023.87 1024.10 1024.15 1024.03 1024.08 1024.03 1023.93 1023.80 1023.71 1023.68 1023.65 1023.67 1023.69
997.86 997.58 997.03 996.78 995.89 997.44 1000.31 1002.41 1002.60 1003.61 1005.92 1006.99 1007.32 1007.77 1008.45 1009.53 1010.20 1010.70 1010.77 1010.69 1010.94 1012.88 1016.21 1019.11 1021.60 1022.76 1023.19 1023.75 1024.07 1024.09 1023.92 1023.81 1023.53 1023.23 1023.30 1023.61 1023.91 1024.06 1024.38 1024.50 1024.53 1024.50 1024.44 1024.48 1024.54 1024.51 1024.35 1024.20 1024.31 1024.34 1024.34 1024.26 1024.03 1024.17
998.66 998.90 998.56 998.20 999.56 1000.92 1003.51 1004.54 1005.08 1006.01 1006.80 1007.64 1008.54 1008.77 1010.19 1011.23 1012.44 1013.07 1014.02 1014.83 1015.97 1021.10 1023.63 1024.89 1025.29 1025.70 1025.87 1025.64 1025.70 1025.48 1024.97 1024.94 1024.59 1024.55 1024.55 1024.54 1024.83 1024.87 1025.03 1025.15 1025.01 1024.87 1024.77 1024.85 1024.85 1025.02 1024.85 1024.88 1025.07 1025.10 1024.96 1024.86 1024.87 1024.88
1000.75 1000.22 1000.46 1000.67 1001.88 1003.59 1005.30 1006.60 1006.79 1007.37 1007.62 1008.78 1009.32 1010.38 1011.61 1013.29 1015.01 1016.76 1017.69 1018.97 1023.87 1026.48 1026.91 1027.01 1027.03 1026.86 1026.57 1026.61 1026.48 1026.02 1025.97 1025.59 1025.48 1025.35 1025.37 1025.42 1025.44 1025.45 1025.68 1025.72 1025.35 1025.44 1025.55 1025.69 1025.70 1025.57 1025.53 1025.70 1025.76 1025.69 1025.56 1025.53 1025.45 1025.26
1002.03 1002.05 1003.63 1004.64 1004.85 1006.23 1008.30 1007.54 1007.41 1008.29 1008.78 1010.31 1011.27 1012.83 1014.74 1016.31 1018.06 1018.94 1021.81 1025.20 1027.39 1028.21 1028.21 1028.06 1027.87 1027.70 1027.47 1027.18 1026.88 1026.78 1026.72 1026.34 1026.25 1026.29 1026.35 1026.28 1026.32 1026.29 1026.24 1026.36 1026.37 1026.26 1026.25 1026.49 1026.45 1026.29 1026.19 1026.25 1026.13 1026.06 1025.93 1025.82 1025.72 1025.50
1004.90 1007.71 1009.19 1010.18 1010.89 1011.34 1010.66 1010.79 1011.11 1011.55 1012.14 1013.06 1014.31 1016.25 1017.82 1018.85 1020.10 1022.20 1025.49 1027.89 1028.98 1029.03 1028.85 1028.75 1028.34 1027.87 1027.80 1027.69 1027.66 1027.70 1027.73 1027.31 1027.25 1027.38 1027.40 1026.95 1027.02 1027.24 1027.31 1027.35 1027.34 1027.44 1027.58 1027.32 1027.07 1026.93 1026.81 1026.70 1026.60 1026.41 1026.28 1026.19 1025.99 1025.81
1008.79 1015.19 1015.23 1015.73 1015.41 1014.67 1014.43 1014.86 1015.14 1014.61 1015.98 1016.67 1017.43 1018.83 1020.07 1020.62 1022.59 1025.54 1027.80 1029.40 1029.67 1029.75 1029.68 1029.52 1029.19 1029.01 1028.72 1028.52 1028.57 1028.54 1028.56 1028.46 1028.20 1028.18 1028.26 1027.91 1027.84 1027.82 1027.95 1027.96 1028.12 1028.33 1028.31 1027.97 1027.85 1027.68 1027.51 1027.34 1027.17 1027.00 1026.78 1026.53 1026.30 1026.05
1016.61 1019.94 1020.01 1020.12 1019.67 1018.71 1018.68 1018.86 1019.21 1019.62 1019.50 1020.12 1021.14 1021.65 1022.17 1023.33 1025.86 1028.57 1029.81 1030.42 1030.55 1030.63 1030.59 1030.49 1030.21 1029.84 1029.70 1029.69 1029.60 1029.41 1029.38 1029.32 1029.10 1029.08 1029.36 1029.15 1028.98 1028.77 1028.82 1028.81 1028.78 1028.79 1028.77 1028.75 1028.58 1028.34 1028.08 1027.82 1027.58 1027.35 1027.04 1026.76 1026.52 1026.29
1021.76 1022.95 1022.82 1023.06 1022.80 1022.21 1022.39 1022.87 1023.08 1023.26 1023.74 1024.48 1024.59 1024.16 1024.75 1026.75 1029.14 1030.58 1030.90 1031.12 1031.18 1031.39 1031.45 1031.41 1031.17 1030.99 1030.96 1030.89 1030.71 1030.48 1030.21 1030.02 1029.89 1030.00 1030.18 1030.17 1030.08 1030.02 1029.97 1030.00 1029.91 1029.70 1029.36 1029.13 1028.92 1028.73 1028.35 1028.10 1027.75 1027.40 1027.21 1027.00 1026.85 1026.62
1024.75 1025.41 1025.35 1025.07 1024.92 1025.17 1025.39 1026.02 1026.84 1027.70 1027.80 1027.89 1027.19 1027.66 1028.64 1029.96 1031.25 1031.61 1031.71 1031.78 1031.88 1032.02 1032.11 1032.13 1032.08 1032.04 1032.01 1032.07 1032.00 1031.65 1031.25 1031.03 1030.66 1030.66 1030.55 1030.53 1030.50 1030.56 1030.57 1030.56 1030.46 1029.77 1029.81 1029.48 1029.23 1028.84 1028.55 1028.22 1027.81 1027.35 1027.28 1027.20 1026.97 1026.72
1026.77 1027.20 1026.83 1026.72 1026.71 1027.65 1029.13 1029.77 1030.11 1030.32 1030.49 1029.98 1029.34 1030.11 1031.14 1031.92 1032.45 1032.39 1032.48 1032.47 1032.53 1032.70 1032.97 1033.17 1033.29 1033.26 1033.15 1032.96 1032.88 1032.73 1032.48 1032.10 1031.71 1031.73 1031.65 1031.45 1031.25 1030.99 1031.02 1030.92 1030.64 1030.30 1029.95 1029.58 1029.06 1028.59 1028.38 1028.06 1027.56 1027.45 1027.38 1027.24 1026.86 1026.51
1028.79 1028.65 1028.27 1028.79 1029.24 1030.86 1031.62 1031.79 1031.51 1031.24 1030.92 1030.70 1030.37 1031.33 1032.14 1033.00 1033.40 1033.28 1033.21 1033.25 1033.41 1033.71 1034.05 1034.21 1034.26 1034.13 1034.20 1033.94 1033.66 1033.33 1033.15 1033.06 1032.98 1033.07 1032.85 1032.45 1032.07 1031.70 1031.44 1031.06 1030.66 1030.25 1029.93 1029.60 1029.23 1028.86 1028.57 1028.28 1027.92 1027.68 1027.32 1026.97 1026.62 1026.20
1030.36 1029.72 1030.31 1031.01 1031.96 1032.69 1032.64 1032.39 1031.74 1031.52 1031.40 1031.81 1032.14 1032.40 1033.15 1033.65 1033.85 1033.93 1033.89 1034.12 1034.31 1034.34 1034.39 1034.52 1034.46 1034.42 1034.45 1034.38 1034.37 1034.08 1033.74 1033.34 1033.23 1033.06 1032.86 1032.53 1032.08 1031.69 1031.31 1030.85 1030.37 1029.97 1029.68 1029.50 1029.30 1028.95 1028.55 1028.24 1027.92 1027.50 1027.11 1026.76 1026.40 1026.10
1032.12 1032.79 1032.90 1033.36 1033.71 1033.43 1033.10 1032.93 1032.70 1032.68 1032.84 1033.00 1033.39 1033.46 1033.84 1033.97 1034.18 1034.17 1034.16 1034.45 1034.62 1034.85 1034.75 1034.82 1034.98 1034.45 1034.19 1034.16 1034.06 1033.90 1033.63 1033.33 1033.03 1032.72 1032.43 1031.86 1031.41 1031.17 1030.70 1030.12 1029.59 1029.29 1029.39 1029.27 1028.94 1028.57 1028.25 1027.97 1027.61 1027.22 1026.84 1026.41 1025.97 1025.57
1034.50 1034.59 1034.82 1035.18 1035.19 1034.93 1034.81 1034.45 1033.91 1033.94 1033.91 1034.38 1034.60 1034.66 1034.77 1034.76 1034.63 1034.38 1034.10 1034.34 1034.66 1034.58 1034.56 1034.31 1034.01 1033.74 1033.59 1033.47 1033.30 1033.04 1032.84 1032.74 1032.76 1031.85 1031.49 1030.93 1030.29 1029.72 1029.20 1028.85 1028.90 1029.22 1029.01 1028.74 1028.39 1028.05 1027.71 1027.37 1027.01 1026.59 1026.21 1025.80 1025.33 1024.84
Wind_Speed
21 20 20 21 22 21 22 21 22 23 20 17 17 20 18 18 22 8 2 7 3 3 3 6 3 2 1 3 5 5 4 1 2 6 5 4 4 7 4 3 8 12 10 7 6 5 10 9 4 8 1 3 4 5
21 21 21 22 22 22 22 22 22 23 23 20 16 19 18 17 21 13 2 3 1 1 3 2 2 1 3 2 4 4 1 3 5 4 3 4 3 4 4 6 3 6 5 5 3 1 3 4 2 2 1 4 3 4
20 21 22 22 22 23 22 23 23 22 23 22 18 16 18 18 18 16 5 6 2 2 3 2 5 4 3 3 3 3 1 1 1 3 3 2 4 4 7 6 4 4 2 4 5 1 1 4 5 5 1 2 2 3
20 19 20 21 21 21 22 22 23 23 23 22 21 17 19 18 18 19 6 7 3 2 3 3 1 2 1 3 2 2 4 5 4 1 1 2 2 2 1 2 2 2 7 5 5 4 5 5 6 7 7 1 3 4
17 18 19 19 18 18 18 19 21 23 23 24 22 20 18 18 17 12 8 10 10 3 2 2 1 2 2 5 6 6 7 4 2 2 1 2 2 3 1 1 4 5 6 4 3 13 6 11 16 14 9 8 5 6
17 17 17 18 17 17 17 17 17 19 23 24 22 21 19 17 16 2 2 6 10 4 3 4 3 3 2 5 6 6 5 3 1 1 3 2 2 1 3 3 2 5 6 1 6 12 8 5 10 9 8 6 6 5
16 16 15 15 16 17 16 16 16 18 21 25 24 23 22 18 10 4 4 1 19 5 3 4 3 1 3 4 2 2 1 3 1 2 1 3 2 2 1 3 3 6 5 3 4 8 1 4 3 7 5 5 4 4
16 18 17 17 17 18 19 19 16 17 21 24 26 23 23 18 14 8 5 10 15 5 3 5 4 4 3 4 4 1 2 1 2 2 1 2 2 1 4 4 4 6 4 2 5 3 4 5 4 6 3 4 4 5
17 20 20 20 22 21 22 20 19 17 20 24 24 22 11 6 4 4 16 24 2 3 6 6 9 7 6 3 3 2 2 2 1 2 3 3 3 5 1 4 1 3 3 2 1 5 5 4 3 2 2 1 2 3
19 21 20 22 25 24 25 24 18 17 15 19 11 5 5 6 10 18 11 11 5 4 3 4 4 6 7 5 3 5 2 4 4 3 4 3 3 11 8 9 8 10 11 10 3 3 3 3 5 5 7 4 5 2
17 17 19 21 22 28 29 27 25 23 16 7 6 5 1 20 4 5 5 7 5 6 4 4 4 10 2 6 5 2 4 4 5 4 6 4 4 5 8 8 10 11 10 8 6 8 7 6 5 2 2 4 1 2
13 13 17 21 33 28 28 31 32 18 4 4 4 5 2 3 3 6 5 4 4 6 4 6 7 7 4 3 4 4 3 3 5 7 4 4 4 7 7 7 9 10 11 10 8 7 8 8 8 6 5 5 5 5
7 14 17 25 31 18 19 26 30 21 13 2 4 6 4 3 3 5 6 2 4 6 8 7 8 5 4 3 4 4 6 4 8 5 4 1 5 5 6 6 6 8 9 7 7 7 7 7 7 8 6 6 6 6
5 12 20 22 26 8 15 23 24 21 4 5 5 4 3 6 6 4 6 6 3 7 10 10 7 4 3 4 4 5 4 5 7 7 5 3 4 4 5 5 5 7 8 8 8 9 8 6 8 8 7 6 5 6
4 7 18 21 22 20 17 19 25 5 1 3 4 5 1 3 6 4 4 5 0 9 11 7 5 3 3 5 3 5 5 5 6 5 4 4 5 5 6 7 7 7 7 7 7 6 6 7 7 7 8 6 6 6
10 3 11 25 18 19 8 15 8 3 5 4 7 3 1 2 3 3 6 5 1 6 5 4 4 4 3 6 5 5 8 6 4 4 4 4 5 6 5 6 6 5 6 5 6 6 6 7 7 6 7 8 8 7
8 5 22 23 13 14 22 5 4 8 6 6 5 5 5 6 6 3 4 3 3 3 4 3 4 3 4 4 4 6 4 4 5 5 5 7 6 5 5 5 6 5 6 6 6 6 5 3 3 6 8 6 7 7
4 9 22 23 8 6 5 7 6 6 8 5 3 3 5 7 5 6 6 7 3 4 3 5 4 6 5 4 4 4 4 5 5 5 5 5 5 5 4 5 5 5 6 5 4 3 3 4 6 5 4 3 3 4
8 13 22 23 7 5 5 6 5 7 5 3 3 4 5 6 9 8 7 8 8 7 6 6 10 6 5 4 4 5 4 4 3 3 4 5 6 5 5 5 5 7 6 5 6 5 4 5 5 4 3 2 3 3
14 17 24 18 12 4 6 5 4 7 5 3 4 4 5 5 4 7 12 10 8 7 11 10 6 4 4 4 4 3 3 4 3 1 4 5 6 6 7 5 4 4 4 3 3 2 2 4 4 4 3 3 2 3
10 11 16 9 6 9 6 4 6 4 4 4 3 3 5 4 6 8 8 9 10 9 6 5 4 4 5 3 4 3 4 4 4 3 3 3 4 4 3 3 3 3 4 4 4 4 5 5 4 4 4 4 3 3
6 13 5 9 6 5 6 6 3 2 3 3 3 4 6 6 6 8 5 12 8 5 4 4 5 5 5 5 5 6 5 4 3 2 3 3 3 3 4 4 4 4 4 4 4 4 4 3 3 3 3 3 3 3
8 8 7 10 7 9 5 5 6 7 6 4 4 6 6 5 5 4 8 6 4 6 6 4 5 3 3 5 6 7 7 6 5 5 4 4 4 4 5 6 6 5 4 5 4 4 4 4 4 4 3 3 3 3
12 11 11 8 11 5 4 7 5 5 5 5 5 5 5 4 4 7 7 4 4 6 6 8 5 2 3 6 7 7 7 5 4 5 5 3 4 5 5 5 5 5 4 4 4 4 4 4 5 4 4 4 4 4
13 14 9 11 7 7 7 6 7 5 6 6 5 6 5 3 6 6 4 3 5 6 6 6 5 6 5 5 5 5 7 5 4 5 6 4 3 2 3 4 5 5 5 5 5 5 4 4 4 5 5 4 5 5
14 9 9 11 8 7 7 6 7 9 5 5 6 3 3 5 7 6 3 4 4 5 5 6 6 5 6 6 5 6 6 5 2 4 4 5 5 4 4 4 4 5 6 4 5 5 6 6 5 6 5 6 6 6
11 8 5 5 4 4 5 5 5 7 7 7 4 4 4 7 6 3 1 3 2 3 3 4 5 5 5 5 5 5 5 5 4 4 3 3 5 5 5 4 5 5 6 6 5 6 7 7 7 6 5 4 4 6
6 7 8 10 6 7 6 6 8 8 5 5 2 7 5 4 3 2 2 3 3 4 5 5 6 5 5 5 5 5 4 5 1 1 1 2 2 3 5 4 4 10 5 5 5 6 6 7 8 7 6 6 7 6
6 7 4 8 5 7 9 6 5 3 3 2 3 4 4 3 2 1 3 3 3 4 5 4 5 4 4 3 2 3 4 5 4 5 4 3 3 2 5 5 5 5 5 5 8 8 10 10 10 9 9 8 8 7
6 5 4 6 7 8 6 4 4 4 1 1 4 8 6 4 4 4 3 3 3 3 2 1 1 3 2 3 4 4 1 2 2 2 2 3 4 6 6 6 6 6 5 5 5 6 10 8 8 7 7 7 7 7
5 4 6 6 6 3 3 4 2 4 6 7 6 7 4 3 1 2 3 1 1 1 2 3 3 1 2 2 1 3 3 1 2 3 4 4 5 6 6 6 6 5 5 3 5 7 8 8 8 9 9 10 10 10
5 5 3 4 2 2 4 3 2 3 3 3 3 2 2 2 1 2 1 2 2 2 2 2 2 4 2 2 3 4 8 6 5 4 6 5 6 7 7 7 7 4 3 6 7 8 8 8 8 9 10 11 11 11
3 4 4 3 3 4 5 4 4 2 4 3 3 1 0 2 2 3 1 2 2 3 3 3 4 4 4 6 5 5 5 4 6 10 12 13 13 12 8 7 2 2 5 7 8 8 9 10 10 11 11 12 12 12
Wind_Direction
259 260 263 266 271 271 269 268 267 264 244 245 263 265 271 248 213 168 138 186 180 222 220 190 186 167 114 153 155 141 127 223 141 197 186 173 197 194 178 141 170 173 173 193 208 230 246 144 116 192 60 65 121 134
265 264 268 276 272 270 268 260 260 261 260 244 246 262 260 272 221 169 165 160 123 217 329 287 240 122 323 12 129 187 325 158 162 170 177 136 158 173 165 201 162 201 202 181 226 220 341 95 11 203 177 93 146 176
273 274 271 271 272 272 268 264 261 258 256 243 238 252 251 257 237 177 151 139 123 209 241 227 213 163 159 248 302 170 184 154 227 344 126 137 176 173 177 223 178 230 190 169 151 101 51 46 345 333 350 246 135 113
272 274 276 276 273 271 270 264 261 252 252 245 231 236 250 246 254 178 156 159 169 179 224 157 34 155 43 226 246 317 120 97 91 357 110 155 144 228 152 56 236 71 148 143 92 121 134 204 246 270 258 352 137 123
269 271 272 267 269 271 274 269 269 252 242 245 235 231 246 242 242 220 173 178 187 210 184 127 135 48 345 196 177 139 118 106 133 138 144 103 92 146 80 106 219 183 161 193 164 159 142 197 213 218 202 209 173 159
275 277 284 280 279 275 269 270 277 263 246 240 242 229 234 242 227 124 194 191 191 184 142 176 52 30 43 160 142 141 100 78 53 106 102 90 327 214 181 230 74 183 201 249 156 175 186 187 217 199 196 170 184 165
278 283 278 279 277 275 271 272 281 278 250 240 235 237 230 236 226 208 175 126 176 130 151 144 176 108 109 110 84 122 77 126 94 93 105 139 160 200 221 233 157 195 202 205 134 123 122 191 185 161 163 157 137 106
271 278 277 279 279 275 273 275 274 281 271 235 231 231 234 236 242 244 174 160 152 112 170 156 118 170 213 145 129 179 136 151 50 122 142 145 130 207 240 233 191 190 139 104 188 26 56 98 82 88 93 127 147 189
277 279 277 281 281 282 275 267 270 274 280 227 219 230 231 219 198 202 171 154 130 206 164 158 156 167 169 114 115 144 203 154 81 165 171 177 164 219 59 215 123 45 56 324 96 65 43 61 69 73 107 23 233 240
269 274 280 291 287 278 268 262 268 268 272 216 199 194 187 196 145 168 143 170 188 190 188 138 109 139 174 147 132 134 170 145 172 171 138 209 238 117 48 37 29 15 14 358 25 346 347 284 208 208 218 221 220 201
281 301 279 276 281 282 261 249 249 256 232 188 197 197 337 169 151 200 153 164 164 163 137 131 147 131 221 159 130 237 157 166 182 160 193 193 249 81 22 31 12 3 360 359 345 317 322 334 335 319 239 242 342 75
269 315 334 328 300 282 242 228 220 215 168 171 133 99 226 165 174 156 151 127 172 144 137 153 124 106 142 148 128 174 154 176 179 140 189 221 94 58 21 7 359 359 352 347 1 354 358 16 6 346 358 13 32 42
314 347 349 337 339 318 215 185 184 182 146 129 186 190 219 146 132 158 126 97 139 148 165 162 128 129 120 183 120 162 164 155 128 175 208 62 90 44 12 359 350 2 355 357 6 19 33 33 29 22 28 24 31 47
270 351 354 351 350 335 153 171 175 151 111 212 169 189 245 146 163 166 149 157 94 141 145 134 108 104 121 146 131 148 79 147 182 179 217 88 56 9 360 6 7 360 6 11 14 15 29 41 52 36 29 23 38 55
323 7 353 357 358 352 199 189 171 92 244 124 157 175 210 36 38 76 94 110 259 148 136 112 82 107 116 116 95 123 165 171 203 195 79 65 41 18 6 4 9 9 11 20 20 25 29 37 57 57 25 32 49 55
9 8 351 351 2 16 84 105 54 91 59 59 41 109 60 112 94 90 99 102 309 119 91 67 122 135 122 137 158 158 158 188 119 62 63 54 43 30 9 9 9 2 11 20 27 32 47 39 46 55 42 35 36 47
48 21 338 350 353 18 34 64 69 51 49 38 42 35 327 37 60 62 29 26 320 177 100 115 94 70 122 120 98 19 51 53 80 69 55 41 32 13 5 24 16 8 22 33 46 46 57 57 47 60 62 39 56 56
38 340 353 351 5 43 44 23 75 65 62 31 67 24 56 13 53 36 10 350 345 61 39 62 39 56 34 77 87 66 75 75 58 53 52 43 42 35 33 40 33 31 45 37 32 38 39 42 67 69 74 74 95 87
356 5 360 1 22 75 55 37 19 86 57 21 68 42 55 85 53 35 20 22 58 39 65 44 57 53 63 43 50 59 41 27 14 28 67 53 41 27 28 36 46 43 37 27 32 44 54 42 47 45 39 26 54 40
0 11 2 6 14 64 73 34 353 73 74 62 32 37 63 50 24 33 32 28 38 49 47 41 40 32 19 18 6 354 0 357 344 109 75 47 37 45 38 31 39 37 53 58 61 33 62 71 50 37 28 26 41 60
20 354 5 22 45 53 71 16 60 53 103 79 356 46 81 65 39 25 33 5 58 36 60 39 24 8 352 354 359 342 17 4 20 19 26 23 28 38 53 44 38 50 51 43 37 36 38 40 23 10 4 21 17 9
352 4 35 12 67 65 73 31 61 103 74 82 73 43 46 44 34 28 25 40 58 31 16 348 348 348 4 15 4 20 2 0 33 41 39 11 50 42 38 21 38 53 49 36 25 27 35 28 9 0 351 357 337 331
10 25 44 10 63 37 18 348 41 17 53 51 42 46 41 53 43 35 71 57 68 18 0 351 332 324 355 26 42 40 26 31 50 43 38 50 52 46 54 42 29 28 42 35 10 10 12 358 357 347 340 326 325 317
32 43 27 35 17 38 354 30 24 36 52 44 49 60 44 42 63 62 69 59 11 5 12 7 1 40 60 46 40 30 13 4 55 50 19 27 66 52 56 56 49 43 20 343 6 9 9 2 347 341 338 325 314 306
65 8 20 10 10 12 34 32 12 32 61 34 70 57 46 30 66 60 64 39 7 13 10 12 32 41 41 40 30 28 25 18 39 58 23 16 93 106 79 72 62 44 11 18 13 0 355 349 348 343 330 319 312 305
65 16 30 4 9 21 8 41 31 24 28 62 50 53 47 63 67 60 58 13 8 9 11 18 19 32 42 32 22 14 6 356 15 70 35 22 27 45 46 38 23 35 18 16 358 348 340 339 328 323 320 324 322 318
43 357 5 37 353 340 64 50 36 49 49 33 12 29 48 64 67 69 65 29 33 33 39 35 29 36 29 16 8 3 3 8 21 80 103 73 58 48 45 32 5 341 350 343 345 335 328 322 315 313 311 313 320 324
47 33 20 352 41 16 56 41 32 23 10 351 359 38 66 59 91 72 45 36 76 76 64 43 28 23 21 16 4 352 352 343 261 252 244 123 74 78 43 11 343 336 335 331 333 316 318 309 311 302 312 307 308 303
32 348 341 20 41 50 40 30 24 9 344 319 63 81 91 61 36 57 47 58 63 65 53 31 20 2 5 342 20 10 3 10 39 38 7 317 333 328 6 337 323 318 317 314 314 323 319 310 319 328 321 303 298 293
357 349 54 31 47 47 13 7 6 343 275 10 82 99 81 72 44 36 51 50 66 74 60 52 323 17 5 353 338 341 0 22 44 76 304 294 288 311 311 306 303 301 301 308 304 306 311 315 302 302 296 297 296 295
315 360 52 38 70 36 341 320 81 76 57 62 62 81 88 129 135 43 42 40 116 61 19 2 347 347 350 341 321 321 312 243 224 255 234 266 273 277 280 282 282 282 291 277 288 294 297 301 295 293 292 290 288 286
20 30 63 74 68 13 11 22 13 64 18 43 29 60 52 65 46 291 199 97 37 22 260 211 262 293 234 234 233 235 246 271 279 278 294 281 280 274 272 272 274 272 260 292 291 290 288 285 289 287 288 287 285 285
28 25 36 60 29 23 1 358 31 46 35 41 11 357 35 139 179 254 268 184 186 229 249 249 257 266 267 269 261 271 258 247 268 291 304 296 290 291 294 292 258 252 282 291 290 288 285 282 280 281 282 281 281 283